This is the latest recevied weather packets stored in our database for station/object SP4LIN-15. If no packets are shown the sender has not sent any weather packets the latest 10 day(s).
| Time | Temp. | Humidity | Pressure | Rain* | Wind** | Luminosity | Snow |
|---|---|---|---|---|---|---|---|
| 1777932545 | 10° C | 84% | 1004.5 hPa | 0 mm | - | - | - |
| 1777931645 | 10° C | 83% | 1004.3 hPa | 0 mm | - | - | - |
| 1777930745 | 10° C | 83% | 1004.5 hPa | 0 mm | - | - | - |
| 1777929845 | 10.56° C | 83% | 1004.6 hPa | 0 mm | - | - | - |
| 1777928945 | 10.56° C | 83% | 1004.4 hPa | 0 mm | - | - | - |
| 1777928045 | 11.11° C | 82% | 1004.6 hPa | 0 mm | - | - | - |
| 1777927145 | 11.11° C | 81% | 1004.5 hPa | 0 mm | - | - | - |
| 1777926245 | 11.67° C | 80% | 1004.5 hPa | 0 mm | - | - | - |
| 1777925345 | 12.22° C | 78% | 1004.4 hPa | 0 mm | - | - | - |
| 1777924445 | 12.78° C | 77% | 1004.3 hPa | 0 mm | - | - | - |
| 1777923545 | 13.33° C | 77% | 1004.4 hPa | 0 mm | - | - | - |
| 1777922646 | 13.89° C | 76% | 1004.4 hPa | 0 mm | - | - | - |
| 1777921746 | 14.44° C | 76% | 1004.4 hPa | 0 mm | - | - | - |
| 1777920846 | 14.44° C | 76% | 1004.2 hPa | 0 mm | - | - | - |
| 1777919946 | 13.89° C | 74% | 1004.1 hPa | 0 mm | - | - | - |
| 1777919046 | 14.44° C | 73% | 1003.7 hPa | 0 mm | - | - | - |
| 1777918146 | 15° C | 71% | 1003.8 hPa | 0 mm | - | - | - |
| 1777917246 | 15.56° C | 70% | 1003.8 hPa | 0 mm | - | - | - |
| 1777916346 | 16.11° C | 69% | 1003.7 hPa | 0 mm | - | - | - |
| 1777915446 | 16.67° C | 68% | 1003.7 hPa | 0 mm | - | - | - |
| 1777914546 | 17.78° C | 65% | 1003.6 hPa | 0 mm | - | - | - |
| 1777913646 | 18.33° C | 64% | 1003.3 hPa | 0 mm | - | - | - |
| 1777912746 | 18.89° C | 62% | 1003.1 hPa | 0 mm | - | - | - |
| 1777911846 | 19.44° C | 60% | 1002.8 hPa | 0 mm | - | - | - |
| 1777910946 | 20.56° C | 56% | 1002.6 hPa | 0 mm | - | - | - |
* Rain latest hour (hover to see other rain measurements)
** Current wind speed in m/s (hover to see current wind gust speed)